ATLAS 5 CENTAUR DEB, 46657

Orbit data source: Space-Track

ATLAS 5 CENTAUR DEB, 46657 is space debris in HEO originally from a launch on Wed, 17 Oct 2018 UTC launched from the Air Force Eastern Test Range (AFETR). Debris objects in space refer to the collection of defunct objects orbiting the Earth. Examples of debris include non-operational satellites, rocket bodies, and fragments generated from explosions, collisions, or faulty payload assembly.

Loading next visibility...
Identifier
46657, 2018-079CK
Orbit
HEO
Country
Flag of USUS
Related business
Flag of USUnited Launch Alliance/Lockheed Martin (US)
Manufacturer
ULA Decatur
Mission
Spacecraft
Bus & Motor
Unknown
Mass
Unknown
Launch date (UTC)
2018-10-17 (8 years ago)
Launch vehicle
Unknown
Launch site
Air Force Eastern Test Range (AFETR)
Object type
Payload
Rocket body
Debris
Shape & HBR
Unknown shape, 1.1 m
Radar Cross Section
Medium (>0.1 m² and <1 m²)

Expand to show TLE details & history
Last TLE update: 1 day ago

TLE from 1 day ago
0 ATLAS 5 CENTAUR DEB
1 46657U 18079CK  26127.20370828 -.00000129  00000-0  00000-0 0  9994
2 46657  12.3247  24.5096 5718977 338.1923   5.1208  1.70501305 34632
Epoch: 2026-05-07T04:53Z
TLE epoch observation values (Epoch: 2026-05-07T04:53:20.395Z)
Latitude
-0.00001°
Longitude
86.08212°
Altitude
6,628.714 km
Speed
6.915 km/s
True Right ascension
01h 37m 52s
True Declination
0° 00' 00"
Sunlit
Object was in daylight at epoch
Visualization orbit readout
Latitude
Unknown
Longitude
Unknown
Altitude
Unknown
Speed
Unknown
Apparent Right ascension
Unknown
Apparent Declination
Unknown
Sunlit
N/A
Visualization observer readout
Local Sidereal Time
15:01:22
Azimuth
Unknown
Elevation
Unknown
Doppler factor
Unknown
Orbital elements
Apogee altitude
40,149.547 km
Perigee altitude
6,293.558 km
Semi-major axis
29,599.689 km
Eccentricity
0.5719
Inclination
12.3247°
RAAN
24.5096°
Arg. of periapsis
338.1923°
True anomaly
22.49287°
Mean anomaly
5.1208°
Eccentric anomaly
11.84904°
Mean motion
0.4262 °/min
Orbital period
844.68 mins
BSTAR
0
Loading maneuver chart data...
Computing Atmospheric mass density...

Documentation

Showing up to 5 results
|